Volver al catálogo

STARLINK-35301

ActivoComunicacionesVLEO
NORAD 65843·PAYLOAD·🇺🇸 United States

Lanzado Sep 29, 2025 desde Vandenberg Space Force Base

Loading…

Próximos Pases (próximas 24 horas)

TLE

ActualizadoSource: CelesTrak SupGP

Época: Sep 14, 2026, 15:49 UTC

1 65843C 25221W   26257.65951389 -.00007469  00000+0 -22095-3 0  2571
2 65843  53.1579 286.7913 0001294  80.4200 120.4256 15.34356546    17

Sigue STARLINK-35301 en tiempo real con AllMySat

Download on the App Store